Location: Dzierzno
(50.6159°N, 19.2852°E)
Time: 05:20:59
(UTC+00:00)

Cosmos 1975 Rocket - Pass Details

Date: 18 November 2025
Orbit: 598 x 626 km, 82.5° (Epoch: 10 December)

Event Time Altitude Azimuth Distance (km) Brightness Sun altitude
Rises 16:03:35 0° 348° (NNW) 2,872 6.4 -11.1°
Reaches altitude 10° 16:05:48 10° 346° (NNW) 1,968 5.6 -11.4°
Maximum altitude 16:10:08 72° 263° (W) 647 3.3 -12.1°
Drops below altitude 10° 16:14:28 10° 179° (S) 1,969 5.8 -12.8°
Sets 16:16:42 0° 178° (S) 2,874 6.6 -13.1°
